Location: Street
(51.1247°N, 2.7429°W)
Time: 08:54:17
(UTC+01:00)

PCSat - Pass Details

Date: 05 April 2023
Orbit: 783 x 794 km, 67.1° (Epoch: 29 May)

Event Time Altitude Azimuth Distance (km) Brightness Sun altitude
Rises 20:14:35 0° 309° (NW) 3,297 14.2 -4.6°
Reaches altitude 10° 20:18:05 10° 332° (NNW) 2,369 12.8 -5.1°
Maximum altitude 20:21:14 15° 8° (N) 2,019 11.8 -5.6°
Drops below altitude 10° 20:24:23 10° 43° (NE) 2,371 11.8 -6.0°
Sets 20:27:53 0° 66° (ENE) 3,301 12.3 -6.6°
